Time,TemperatureF,DewpointF,PressureIn,WindDirection,WindDirectionDegrees,WindSpeedMPH,WindSpeedGustMPH,Humidity,HourlyPrecipIn,Conditions,Clouds,dailyrainin,SoftwareType,DateUTC
2013-01-26 00:04:00,23.5,14.9,29.47,NW,314,2.0,2.0,69,0.00,CLR,,0.00,WeatherDisplay:10.37,2013-01-26 06:04:00,
2013-01-26 00:09:00,23.7,15.0,29.47,NW,323,2.0,2.0,69,0.00,CLR,,0.00,WeatherDisplay:10.37,2013-01-26 06:09:00,
2013-01-26 00:14:00,24.4,16.1,29.47,NNW,332,2.0,3.0,70,0.00,CLR,,0.00,WeatherDisplay:10.37,2013-01-26 06:14:00,
2013-01-26 00:19:00,25.3,16.9,29.47,NNW,332,3.0,3.0,70,0.00,CLR,,0.00,WeatherDisplay:10.37,2013-01-26 06:19:00,
2013-01-26 00:24:00,25.5,17.1,29.47,NNW,332,3.0,3.0,70,0.00,CLR,,0.00,WeatherDisplay:10.37,2013-01-26 06:24:00,
2013-01-26 00:29:00,26.6,18.1,29.47,NNW,331,5.0,5.0,70,0.00,CLR,,0.00,WeatherDisplay:10.37,2013-01-26 06:29:00,
2013-01-26 00:34:00,27.3,18.8,29.47,NNW,334,6.0,6.0,70,0.00,CLR,,0.00,WeatherDisplay:10.37,2013-01-26 06:34:00,
2013-01-26 00:39:00,28.0,18.8,29.47,NNW,341,7.0,7.0,68,0.00,CLR,,0.00,WeatherDisplay:10.37,2013-01-26 06:39:00,
2013-01-26 00:44:00,28.6,18.3,29.47,North,349,8.0,8.0,65,0.00,CLR,,0.00,WeatherDisplay:10.37,2013-01-26 06:44:00,
2013-01-26 00:49:00,28.4,17.4,29.47,NNW,346,9.0,9.0,63,0.00,CLR,,0.00,WeatherDisplay:10.37,2013-01-26 06:49:00,
2013-01-26 00:54:00,28.0,17.1,29.47,NNW,347,9.0,9.0,63,0.00,CLR,,0.00,WeatherDisplay:10.37,2013-01-26 06:54:00,
2013-01-26 00:59:00,27.3,16.4,29.47,North,351,9.0,9.0,63,0.00,CLR,,0.00,WeatherDisplay:10.37,2013-01-26 06:59:00,
2013-01-26 01:04:00,26.4,15.5,29.47,North,350,8.0,9.0,63,0.00,CLR,,0.00,WeatherDisplay:10.37,2013-01-26 07:04:00,
2013-01-26 01:09:00,26.1,15.5,29.47,North,352,8.0,9.0,64,0.00,CLR,,0.00,WeatherDisplay:10.37,2013-01-26 07:09:00,
2013-01-26 01:19:00,25.2,14.3,29.50,North,356,8.0,8.0,63,0.00,CLR,,0.00,WeatherDisplay:10.37,2013-01-26 07:19:00,
2013-01-26 01:24:00,24.8,14.0,29.50,North,353,8.0,8.0,63,0.00,CLR,,0.00,WeatherDisplay:10.37,2013-01-26 07:24:00,
2013-01-26 01:29:00,24.4,13.6,29.50,North,352,8.0,8.0,63,0.00,CLR,,0.00,WeatherDisplay:10.37,2013-01-26 07:29:00,
2013-01-26 01:34:00,24.1,13.3,29.50,North,354,7.0,8.0,63,0.00,CLR,,0.00,WeatherDisplay:10.37,2013-01-26 07:34:00,
2013-01-26 01:39:00,24.1,13.3,29.50,North,354,7.0,7.0,63,0.00,CLR,,0.00,WeatherDisplay:10.37,2013-01-26 07:39:00,
2013-01-26 01:44:00,24.1,12.9,29.50,North,352,7.0,7.0,62,0.00,CLR,,0.00,WeatherDisplay:10.37,2013-01-26 07:44:00,
2013-01-26 01:49:00,23.9,12.4,29.50,NNW,342,8.0,8.0,61,0.00,CLR,,0.00,WeatherDisplay:10.37,2013-01-26 07:49:00,
2013-01-26 01:54:00,24.1,12.2,29.50,NNW,338,8.0,8.0,60,0.00,CLR,,0.00,WeatherDisplay:10.37,2013-01-26 07:54:00,
2013-01-26 01:59:00,24.4,10.6,29.50,NNW,341,8.0,9.0,55,0.00,CLR,,0.00,WeatherDisplay:10.37,2013-01-26 07:59:00,
2013-01-26 02:04:00,23.9,8.4,29.50,NNW,341,10.0,10.0,51,0.00,CLR,,0.00,WeatherDisplay:10.37,2013-01-26 08:04:00,
2013-01-26 02:09:00,23.9,7.9,29.50,NNW,340,10.0,11.0,50,0.00,CLR,,0.00,WeatherDisplay:10.37,2013-01-26 08:09:00,
2013-01-26 02:14:00,23.5,6.2,29.50,NNW,340,13.0,13.0,47,0.00,CLR,,0.00,WeatherDisplay:10.37,2013-01-26 08:14:00,
2013-01-26 02:19:00,23.2,5.4,29.50,NNW,338,13.0,13.0,46,0.00,CLR,,0.00,WeatherDisplay:10.37,2013-01-26 08:19:00,
2013-01-26 02:24:00,23.0,5.3,29.53,NNW,337,13.0,13.0,46,0.00,CLR,,0.00,WeatherDisplay:10.37,2013-01-26 08:24:00,
2013-01-26 02:29:00,22.6,4.9,29.53,NNW,335,13.0,13.0,46,0.00,CLR,,0.00,WeatherDisplay:10.37,2013-01-26 08:29:00,
2013-01-26 02:34:00,22.5,4.8,29.53,NNW,340,12.0,13.0,46,0.00,CLR,,0.00,WeatherDisplay:10.37,2013-01-26 08:34:00,
2013-01-26 02:39:00,22.5,4.8,29.53,NNW,346,12.0,12.0,46,0.00,CLR,,0.00,WeatherDisplay:10.37,2013-01-26 08:39:00,
2013-01-26 02:44:00,22.1,4.4,29.53,North,353,10.0,12.0,46,0.00,CLR,,0.00,WeatherDisplay:10.37,2013-01-26 08:44:00,
2013-01-26 02:49:00,21.9,4.3,29.53,North,350,10.0,11.0,46,0.00,CLR,,0.00,WeatherDisplay:10.37,2013-01-26 08:49:00,
2013-01-26 02:54:00,21.9,4.3,29.53,North,350,10.0,11.0,46,0.00,CLR,,0.00,WeatherDisplay:10.37,2013-01-26 08:54:00,
2013-01-26 02:59:00,21.9,4.3,29.53,North,350,10.0,11.0,46,0.00,CLR,,0.00,WeatherDisplay:10.37,2013-01-26 08:59:00,
2013-01-26 03:04:00,20.5,3.4,29.53,North,355,10.0,11.0,47,0.00,CLR,,0.00,WeatherDisplay:10.37,2013-01-26 09:04:00,
2013-01-26 03:09:00,20.3,3.2,29.53,North,355,10.0,10.0,47,0.00,CLR,,0.00,WeatherDisplay:10.37,2013-01-26 09:09:00,
2013-01-26 03:19:00,19.8,3.2,29.53,North,352,9.0,9.0,48,0.00,CLR,,0.00,WeatherDisplay:10.37,2013-01-26 09:19:00,
2013-01-26 03:24:00,19.8,3.2,29.53,North,355,9.0,9.0,48,0.00,CLR,,0.00,WeatherDisplay:10.37,2013-01-26 09:24:00,
2013-01-26 03:29:00,19.8,3.2,29.53,North,355,9.0,9.0,48,0.00,CLR,,0.00,WeatherDisplay:10.37,2013-01-26 09:29:00,
2013-01-26 03:34:00,19.8,3.2,29.53,North,355,9.0,9.0,48,0.00,CLR,,0.00,WeatherDisplay:10.37,2013-01-26 09:34:00,
2013-01-26 03:39:00,19.8,3.2,29.53,North,355,9.0,9.0,48,0.00,CLR,,0.00,WeatherDisplay:10.37,2013-01-26 09:39:00,
2013-01-26 03:44:00,19.8,3.2,29.53,North,355,9.0,9.0,48,0.00,CLR,,0.00,WeatherDisplay:10.37,2013-01-26 09:44:00,
2013-01-26 03:49:00,19.8,3.2,29.53,North,355,9.0,9.0,48,0.00,CLR,,0.00,WeatherDisplay:10.37,2013-01-26 09:49:00,
2013-01-26 03:54:00,19.8,3.2,29.53,North,355,9.0,9.0,48,0.00,CLR,,0.00,WeatherDisplay:10.37,2013-01-26 09:54:00,
2013-01-26 03:59:00,19.8,3.2,29.53,North,355,9.0,9.0,48,0.00,CLR,,0.00,WeatherDisplay:10.37,2013-01-26 09:59:00,
2013-01-26 04:04:00,18.1,3.0,29.56,North,352,8.0,9.0,51,0.00,CLR,,0.00,WeatherDisplay:10.37,2013-01-26 10:04:00,
2013-01-26 04:09:00,18.0,2.9,29.56,North,350,8.0,8.0,51,0.00,CLR,,0.00,WeatherDisplay:10.37,2013-01-26 10:09:00,
2013-01-26 04:14:00,17.8,2.7,29.56,North,350,7.0,7.0,51,0.00,CLR,,0.00,WeatherDisplay:10.37,2013-01-26 10:14:00,
2013-01-26 04:19:00,18.0,3.3,29.56,NNW,346,6.0,7.0,52,0.00,CLR,,0.00,WeatherDisplay:10.37,2013-01-26 10:19:00,
2013-01-26 04:24:00,18.0,3.3,29.56,NNW,343,6.0,6.0,52,0.00,CLR,,0.00,WeatherDisplay:10.37,2013-01-26 10:24:00,
2013-01-26 04:29:00,18.1,3.4,29.56,NNW,346,6.0,6.0,52,0.00,CLR,,0.00,WeatherDisplay:10.37,2013-01-26 10:29:00,
2013-01-26 04:34:00,18.3,3.2,29.56,NNW,348,6.0,6.0,51,0.00,CLR,,0.00,WeatherDisplay:10.37,2013-01-26 10:34:00,
2013-01-26 04:39:00,18.3,2.8,29.56,North,349,6.0,6.0,50,0.00,CLR,,0.00,WeatherDisplay:10.37,2013-01-26 10:39:00,
2013-01-26 04:44:00,17.8,1.8,29.56,North,352,7.0,7.0,49,0.00,CLR,,0.00,WeatherDisplay:10.37,2013-01-26 10:44:00,
2013-01-26 04:49:00,18.0,2.0,29.56,North,351,7.0,7.0,49,0.00,CLR,,0.00,WeatherDisplay:10.37,2013-01-26 10:49:00,
2013-01-26 04:54:00,17.6,2.1,29.56,North,350,7.0,7.0,50,0.00,CLR,,0.00,WeatherDisplay:10.37,2013-01-26 10:54:00,
2013-01-26 04:59:00,17.6,2.1,29.56,NNW,347,7.0,7.0,50,0.00,CLR,,0.00,WeatherDisplay:10.37,2013-01-26 10:59:00,
2013-01-26 05:04:00,17.8,1.8,29.56,NNW,348,7.0,7.0,49,0.00,CLR,,0.00,WeatherDisplay:10.37,2013-01-26 11:04:00,
2013-01-26 05:09:00,17.8,1.8,29.56,North,350,7.0,7.0,49,0.00,CLR,,0.00,WeatherDisplay:10.37,2013-01-26 11:09:00,
2013-01-26 05:14:00,17.4,1.9,29.56,North,354,7.0,7.0,50,0.00,CLR,,0.00,WeatherDisplay:10.37,2013-01-26 11:14:00,
2013-01-26 05:19:00,17.2,1.8,29.56,North,354,7.0,7.0,50,0.00,CLR,,0.00,WeatherDisplay:10.37,2013-01-26 11:19:00,
2013-01-26 05:24:00,17.2,1.8,29.56,North,351,7.0,7.0,50,0.00,CLR,,0.00,WeatherDisplay:10.37,2013-01-26 11:24:00,
2013-01-26 05:29:00,16.9,1.4,29.56,NNW,347,7.0,7.0,50,0.00,CLR,,0.00,WeatherDisplay:10.37,2013-01-26 11:29:00,
2013-01-26 05:34:00,16.7,1.3,29.56,North,353,7.0,7.0,50,0.00,CLR,,0.00,WeatherDisplay:10.37,2013-01-26 11:34:00,
2013-01-26 05:39:00,16.7,1.3,29.56,North,355,7.0,7.0,50,0.00,CLR,,0.00,WeatherDisplay:10.37,2013-01-26 11:39:00,
2013-01-26 05:44:00,16.5,1.5,29.59,NNW,348,6.0,7.0,51,0.00,CLR,,0.00,WeatherDisplay:10.37,2013-01-26 11:44:00,
2013-01-26 05:49:00,16.3,1.3,29.59,North,350,6.0,6.0,51,0.00,CLR,,0.00,WeatherDisplay:10.37,2013-01-26 11:49:00,
2013-01-26 05:54:00,16.3,1.8,29.59,North,351,5.0,6.0,52,0.00,CLR,,0.00,WeatherDisplay:10.37,2013-01-26 11:54:00,
2013-01-26 05:59:00,16.2,1.6,29.59,NNW,345,5.0,5.0,52,0.00,CLR,,0.00,WeatherDisplay:10.37,2013-01-26 11:59:00,
2013-01-26 06:04:00,15.8,1.3,29.59,NNW,347,3.0,5.0,52,0.00,CLR,,0.00,WeatherDisplay:10.37,2013-01-26 12:04:00,
2013-01-26 06:09:00,16.0,1.8,29.59,NNW,348,3.0,4.0,53,0.00,CLR,,0.00,WeatherDisplay:10.37,2013-01-26 12:09:00,
2013-01-26 06:14:00,15.6,1.5,29.59,North,350,3.0,4.0,53,0.00,CLR,,0.00,WeatherDisplay:10.37,2013-01-26 12:14:00,
2013-01-26 06:19:00,15.6,1.5,29.59,North,350,3.0,4.0,53,0.00,CLR,,0.00,WeatherDisplay:10.37,2013-01-26 12:19:00,
2013-01-26 06:24:00,15.4,1.7,29.59,North,352,3.0,4.0,54,0.00,CLR,,0.00,WeatherDisplay:10.37,2013-01-26 12:24:00,
2013-01-26 06:29:00,15.3,1.6,29.59,North,351,3.0,4.0,54,0.00,CLR,,0.00,WeatherDisplay:10.37,2013-01-26 12:29:00,
2013-01-26 06:34:00,15.1,1.8,29.59,North,350,2.0,3.0,55,0.00,CLR,,0.00,WeatherDisplay:10.37,2013-01-26 12:34:00,
2013-01-26 06:39:00,14.9,1.6,29.59,North,356,2.0,3.0,55,0.00,CLR,,0.00,WeatherDisplay:10.37,2013-01-26 12:39:00,
2013-01-26 06:44:00,15.1,2.2,29.59,North,3,2.0,3.0,56,0.00,CLR,,0.00,WeatherDisplay:10.37,2013-01-26 12:44:00,
2013-01-26 06:49:00,15.3,2.3,29.59,North,5,2.0,3.0,56,0.00,CLR,,0.00,WeatherDisplay:10.37,2013-01-26 12:49:00,
2013-01-26 06:54:00,15.1,2.2,29.59,North,5,3.0,3.0,56,0.00,CLR,,0.00,WeatherDisplay:10.37,2013-01-26 12:54:00,
2013-01-26 06:59:00,15.1,2.2,29.59,North,9,3.0,4.0,56,0.00,CLR,,0.00,WeatherDisplay:10.37,2013-01-26 12:59:00,
2013-01-26 07:04:00,15.1,2.2,29.59,North,8,5.0,5.0,56,0.00,CLR,,0.00,WeatherDisplay:10.37,2013-01-26 13:04:00,
2013-01-26 07:09:00,15.1,2.2,29.59,North,7,5.0,5.0,56,0.00,CLR,,0.00,WeatherDisplay:10.37,2013-01-26 13:09:00,
2013-01-26 07:19:00,15.1,2.2,29.59,North,6,6.0,6.0,56,0.00,CLR,,0.00,WeatherDisplay:10.37,2013-01-26 13:19:00,
2013-01-26 07:24:00,15.3,2.3,29.59,North,3,6.0,6.0,56,0.00,CLR,,0.00,WeatherDisplay:10.37,2013-01-26 13:24:00,
2013-01-26 07:29:00,15.6,2.7,29.59,North,6,6.0,6.0,56,0.00,CLR,,0.00,WeatherDisplay:10.37,2013-01-26 13:29:00,
2013-01-26 07:34:00,16.2,3.2,29.59,North,9,6.0,6.0,56,0.00,CLR,,0.00,WeatherDisplay:10.37,2013-01-26 13:34:00,
2013-01-26 07:39:00,16.3,3.4,29.59,North,7,6.0,6.0,56,0.00,CLR,,0.00,WeatherDisplay:10.37,2013-01-26 13:39:00,
2013-01-26 07:44:00,16.5,3.1,29.59,North,6,6.0,6.0,55,0.00,CLR,,0.00,WeatherDisplay:10.37,2013-01-26 13:44:00,
2013-01-26 07:49:00,16.7,3.3,29.59,North,8,6.0,6.0,55,0.00,CLR,,0.00,WeatherDisplay:10.37,2013-01-26 13:49:00,
2013-01-26 07:54:00,16.9,3.5,29.62,North,11,6.0,6.0,55,0.00,CLR,,0.00,WeatherDisplay:10.37,2013-01-26 13:54:00,
2013-01-26 07:59:00,16.9,3.5,29.62,NNE,17,7.0,7.0,55,0.00,CLR,,0.00,WeatherDisplay:10.37,2013-01-26 13:59:00,
2013-01-26 08:04:00,17.1,3.6,29.62,NNE,13,7.0,7.0,55,0.00,CLR,,0.00,WeatherDisplay:10.37,2013-01-26 14:04:00,
2013-01-26 08:09:00,17.8,4.3,29.62,North,11,7.0,7.0,55,0.00,CLR,,0.00,WeatherDisplay:10.37,2013-01-26 14:09:00,
2013-01-26 08:14:00,18.7,4.8,29.62,North,10,7.0,7.0,54,0.00,CLR,,0.00,WeatherDisplay:10.37,2013-01-26 14:14:00,
2013-01-26 08:19:00,19.4,5.0,29.62,NNE,12,8.0,8.0,53,0.00,CLR,,0.00,WeatherDisplay:10.37,2013-01-26 14:19:00,
2013-01-26 08:24:00,19.8,4.9,29.62,NNE,14,8.0,8.0,52,0.00,CLR,,0.00,WeatherDisplay:10.37,2013-01-26 14:24:00,
2013-01-26 08:29:00,19.8,4.5,29.62,NNE,17,8.0,8.0,51,0.00,CLR,,0.00,WeatherDisplay:10.37,2013-01-26 14:29:00,
2013-01-26 08:34:00,20.7,5.4,29.62,NNE,13,8.0,9.0,51,0.00,CLR,,0.00,WeatherDisplay:10.37,2013-01-26 14:34:00,
2013-01-26 08:39:00,20.7,4.9,29.62,NNE,12,9.0,9.0,50,0.00,CLR,,0.00,WeatherDisplay:10.37,2013-01-26 14:39:00,
2013-01-26 08:44:00,21.7,5.9,29.62,NNE,17,8.0,9.0,50,0.00,CLR,,0.00,WeatherDisplay:10.37,2013-01-26 14:44:00,
2013-01-26 08:49:00,21.7,5.5,29.62,NNE,17,8.0,9.0,49,0.00,CLR,,0.00,WeatherDisplay:10.37,2013-01-26 14:49:00,
2013-01-26 08:54:00,22.1,5.4,29.62,North,9,8.0,8.0,48,0.00,CLR,,0.00,WeatherDisplay:10.37,2013-01-26 14:54:00,
2013-01-26 08:59:00,22.5,5.2,29.65,North,6,8.0,8.0,47,0.00,CLR,,0.00,WeatherDisplay:10.37,2013-01-26 14:59:00,
2013-01-26 09:04:00,23.0,6.2,29.65,NNE,16,8.0,8.0,48,0.00,CLR,,0.00,WeatherDisplay:10.37,2013-01-26 15:04:00,
2013-01-26 09:09:00,22.6,5.4,29.65,NNE,17,8.0,8.0,47,0.00,CLR,,0.00,WeatherDisplay:10.37,2013-01-26 15:09:00,
2013-01-26 09:14:00,23.2,5.4,29.65,NNE,20,8.0,8.0,46,0.00,CLR,,0.00,WeatherDisplay:10.37,2013-01-26 15:14:00,
2013-01-26 09:19:00,23.5,5.8,29.65,NNE,30,8.0,8.0,46,0.00,CLR,,0.00,WeatherDisplay:10.37,2013-01-26 15:19:00,
2013-01-26 09:24:00,23.5,5.8,29.65,NNE,24,8.0,8.0,46,0.00,CLR,,0.00,WeatherDisplay:10.37,2013-01-26 15:24:00,
2013-01-26 09:29:00,24.1,6.3,29.65,NNE,30,8.0,8.0,46,0.00,CLR,,0.00,WeatherDisplay:10.37,2013-01-26 15:29:00,
2013-01-26 09:34:00,24.6,6.3,29.65,NNE,30,8.0,8.0,45,0.00,CLR,,0.00,WeatherDisplay:10.37,2013-01-26 15:34:00,
2013-01-26 09:39:00,25.0,6.6,29.65,NNE,28,8.0,8.0,45,0.00,CLR,,0.00,WeatherDisplay:10.37,2013-01-26 15:39:00,
2013-01-26 09:44:00,25.5,7.1,29.65,NNE,33,8.0,8.0,45,0.00,CLR,,0.00,WeatherDisplay:10.37,2013-01-26 15:44:00,
2013-01-26 09:49:00,25.3,6.4,29.65,NNE,15,8.0,8.0,44,0.00,CLR,,0.00,WeatherDisplay:10.37,2013-01-26 15:49:00,
2013-01-26 09:54:00,25.7,6.3,29.65,NNE,20,8.0,8.0,43,0.00,CLR,,0.00,WeatherDisplay:10.37,2013-01-26 15:54:00,
2013-01-26 09:59:00,26.4,6.9,29.65,NNE,27,7.0,8.0,43,0.00,CLR,,0.00,WeatherDisplay:10.37,2013-01-26 15:59:00,
2013-01-26 10:04:00,27.5,7.9,29.65,NE,56,7.0,7.0,43,0.00,CLR,,0.00,WeatherDisplay:10.37,2013-01-26 16:04:00,
2013-01-26 10:09:00,27.9,7.7,29.68,NE,55,6.0,7.0,42,0.00,CLR,,0.00,WeatherDisplay:10.37,2013-01-26 16:09:00,
2013-01-26 10:14:00,28.2,8.0,29.68,NNE,22,6.0,6.0,42,0.00,CLR,,0.00,WeatherDisplay:10.37,2013-01-26 16:14:00,
2013-01-26 10:19:00,28.0,7.3,29.68,NNE,32,5.0,6.0,41,0.00,CLR,,0.00,WeatherDisplay:10.37,2013-01-26 16:19:00,
2013-01-26 10:24:00,27.5,6.8,29.68,NE,35,5.0,5.0,41,0.00,CLR,,0.00,WeatherDisplay:10.37,2013-01-26 16:24:00,
2013-01-26 10:29:00,28.4,7.7,29.68,NE,47,5.0,6.0,41,0.00,CLR,,0.00,WeatherDisplay:10.37,2013-01-26 16:29:00,
2013-01-26 10:34:00,28.4,7.1,29.68,NE,49,5.0,5.0,40,0.00,CLR,,0.00,WeatherDisplay:10.37,2013-01-26 16:34:00,
2013-01-26 10:39:00,28.6,7.3,29.68,NE,36,5.0,5.0,40,0.00,CLR,,0.00,WeatherDisplay:10.37,2013-01-26 16:39:00,
2013-01-26 10:44:00,28.4,7.1,29.68,NNE,25,5.0,5.0,40,0.00,CLR,,0.00,WeatherDisplay:10.37,2013-01-26 16:44:00,
2013-01-26 10:49:00,29.5,8.1,29.68,NE,38,3.0,5.0,40,0.00,CLR,,0.00,WeatherDisplay:10.37,2013-01-26 16:49:00,
2013-01-26 10:54:00,29.7,8.3,29.68,NE,39,3.0,4.0,40,0.00,CLR,,0.00,WeatherDisplay:10.37,2013-01-26 16:54:00,
2013-01-26 10:59:00,29.5,7.5,29.68,NNE,33,3.0,3.0,39,0.00,CLR,,0.00,WeatherDisplay:10.37,2013-01-26 16:59:00,
2013-01-26 11:04:00,29.7,7.7,29.68,NNE,18,2.0,3.0,39,0.00,CLR,,0.00,WeatherDisplay:10.37,2013-01-26 17:04:00,
2013-01-26 11:09:00,29.5,7.0,29.68,NNE,21,2.0,3.0,38,0.00,CLR,,0.00,WeatherDisplay:10.37,2013-01-26 17:09:00,
2013-01-26 11:14:00,29.3,7.4,29.65,NE,54,3.0,3.0,39,0.00,CLR,,0.00,WeatherDisplay:10.37,2013-01-26 17:14:00,
2013-01-26 11:19:00,29.5,7.5,29.65,ENE,72,3.0,4.0,39,0.00,CLR,,0.00,WeatherDisplay:10.37,2013-01-26 17:19:00,
2013-01-26 11:24:00,28.9,7.0,29.65,ENE,74,3.0,4.0,39,0.00,CLR,,0.00,WeatherDisplay:10.37,2013-01-26 17:24:00,
2013-01-26 11:29:00,29.7,8.3,29.65,ENE,75,5.0,5.0,40,0.00,CLR,,0.00,WeatherDisplay:10.37,2013-01-26 17:29:00,
2013-01-26 11:34:00,29.5,7.5,29.65,ENE,64,5.0,5.0,39,0.00,CLR,,0.00,WeatherDisplay:10.37,2013-01-26 17:34:00,
2013-01-26 11:39:00,29.1,6.6,29.65,NE,50,3.0,5.0,38,0.00,CLR,,0.00,WeatherDisplay:10.37,2013-01-26 17:39:00,
2013-01-26 11:44:00,30.0,8.0,29.65,ENE,76,3.0,5.0,39,0.00,CLR,,0.00,WeatherDisplay:10.37,2013-01-26 17:44:00,
2013-01-26 11:49:00,29.8,7.9,29.65,ENE,76,5.0,5.0,39,0.00,CLR,,0.00,WeatherDisplay:10.37,2013-01-26 17:49:00,
2013-01-26 11:54:00,29.1,6.6,29.65,ENE,60,5.0,5.0,38,0.00,CLR,,0.00,WeatherDisplay:10.37,2013-01-26 17:54:00,
2013-01-26 11:59:00,29.7,7.1,29.65,NE,35,5.0,5.0,38,0.00,CLR,,0.00,WeatherDisplay:10.37,2013-01-26 17:59:00,
2013-01-26 12:04:00,29.5,7.0,29.65,North,11,5.0,5.0,38,0.00,CLR,,0.00,WeatherDisplay:10.37,2013-01-26 18:04:00,
2013-01-26 12:09:00,29.7,7.1,29.65,NNE,12,5.0,5.0,38,0.00,CLR,,0.00,WeatherDisplay:10.37,2013-01-26 18:09:00,
2013-01-26 12:14:00,29.5,7.0,29.65,North,8,5.0,5.0,38,0.00,CLR,,0.00,WeatherDisplay:10.37,2013-01-26 18:14:00,
2013-01-26 12:19:00,29.7,6.5,29.65,North,0,6.0,6.0,37,0.00,CLR,,0.00,WeatherDisplay:10.37,2013-01-26 18:19:00,
2013-01-26 12:24:00,29.7,7.1,29.65,North,10,6.0,6.0,38,0.00,CLR,,0.00,WeatherDisplay:10.37,2013-01-26 18:24:00,
2013-01-26 12:29:00,30.0,8.0,29.65,NE,54,6.0,6.0,39,0.00,CLR,,0.00,WeatherDisplay:10.37,2013-01-26 18:29:00,
2013-01-26 12:34:00,30.4,7.8,29.65,NE,37,6.0,6.0,38,0.00,CLR,,0.00,WeatherDisplay:10.37,2013-01-26 18:34:00,
2013-01-26 12:39:00,30.4,7.8,29.65,NNE,18,6.0,6.0,38,0.00,CLR,,0.00,WeatherDisplay:10.37,2013-01-26 18:39:00,
2013-01-26 12:44:00,30.7,8.1,29.65,North,5,6.0,6.0,38,0.00,CLR,,0.00,WeatherDisplay:10.37,2013-01-26 18:44:00,
2013-01-26 12:49:00,31.1,7.8,29.62,NNE,26,6.0,6.0,37,0.00,CLR,,0.00,WeatherDisplay:10.37,2013-01-26 18:49:00,
2013-01-26 12:54:00,31.3,8.0,29.62,ENE,64,6.0,6.0,37,0.00,CLR,,0.00,WeatherDisplay:10.37,2013-01-26 18:54:00,
2013-01-26 12:59:00,31.8,9.6,29.62,SE,136,6.0,6.0,39,0.00,CLR,,0.00,WeatherDisplay:10.37,2013-01-26 18:59:00,
2013-01-26 13:04:00,32.0,9.2,29.62,SSE,147,5.0,6.0,38,0.00,CLR,,0.00,WeatherDisplay:10.37,2013-01-26 19:04:00,
2013-01-26 13:09:00,30.9,7.1,29.62,SE,139,5.0,5.0,36,0.00,CLR,,0.00,WeatherDisplay:10.37,2013-01-26 19:09:00,
2013-01-26 13:14:00,32.0,8.6,29.62,SSE,147,3.0,5.0,37,0.00,CLR,,0.00,WeatherDisplay:10.37,2013-01-26 19:14:00,
2013-01-26 13:19:00,32.9,9.4,29.62,South,184,3.0,4.0,37,0.00,CLR,,0.00,WeatherDisplay:10.37,2013-01-26 19:19:00,
2013-01-26 13:24:00,32.9,9.4,29.62,SSE,161,3.0,4.0,37,0.00,CLR,,0.00,WeatherDisplay:10.37,2013-01-26 19:24:00,
2013-01-26 13:29:00,32.2,7.6,29.62,ESE,105,3.0,4.0,35,0.00,CLR,,0.00,WeatherDisplay:10.37,2013-01-26 19:29:00,
2013-01-26 13:34:00,32.4,7.7,29.62,East,89,3.0,4.0,35,0.00,CLR,,0.00,WeatherDisplay:10.37,2013-01-26 19:34:00,
2013-01-26 13:39:00,32.7,8.0,29.62,East,98,3.0,4.0,35,0.00,CLR,,0.00,WeatherDisplay:10.37,2013-01-26 19:39:00,
2013-01-26 13:44:00,32.9,8.8,29.62,ESE,106,3.0,3.0,36,0.00,CLR,,0.00,WeatherDisplay:10.37,2013-01-26 19:44:00,
2013-01-26 13:49:00,32.5,8.5,29.62,East,91,3.0,3.0,36,0.00,CLR,,0.00,WeatherDisplay:10.37,2013-01-26 19:49:00,
2013-01-26 13:54:00,32.9,8.8,29.59,East,93,3.0,3.0,36,0.00,CLR,,0.00,WeatherDisplay:10.37,2013-01-26 19:54:00,
2013-01-26 13:59:00,32.9,8.8,29.59,SE,128,3.0,4.0,36,0.00,CLR,,0.00,WeatherDisplay:10.37,2013-01-26 19:59:00,
2013-01-26 14:04:00,33.1,8.4,29.59,SSE,151,5.0,5.0,35,0.00,CLR,,0.00,WeatherDisplay:10.37,2013-01-26 20:04:00,
2013-01-26 14:09:00,33.4,8.7,29.59,SSE,157,5.0,5.0,35,0.00,CLR,,0.00,WeatherDisplay:10.37,2013-01-26 20:09:00,
2013-01-26 14:14:00,33.8,9.0,29.59,SSE,165,5.0,5.0,35,0.00,CLR,,0.00,WeatherDisplay:10.37,2013-01-26 20:14:00,
2013-01-26 14:19:00,34.0,9.2,29.59,South,172,3.0,5.0,35,0.00,CLR,,0.00,WeatherDisplay:10.37,2013-01-26 20:19:00,
2013-01-26 14:24:00,33.8,9.0,29.59,SSE,163,5.0,5.0,35,0.00,CLR,,0.00,WeatherDisplay:10.37,2013-01-26 20:24:00,
2013-01-26 14:29:00,33.1,8.4,29.59,SE,141,3.0,4.0,35,0.00,CLR,,0.00,WeatherDisplay:10.37,2013-01-26 20:29:00,
2013-01-26 14:34:00,33.3,8.5,29.59,SE,126,3.0,4.0,35,0.00,CLR,,0.00,WeatherDisplay:10.37,2013-01-26 20:34:00,
2013-01-26 14:39:00,33.3,8.5,29.59,SE,128,3.0,4.0,35,0.00,CLR,,0.00,WeatherDisplay:10.37,2013-01-26 20:39:00,
2013-01-26 14:44:00,33.4,9.3,29.59,SSE,156,3.0,4.0,36,0.00,CLR,,0.00,WeatherDisplay:10.37,2013-01-26 20:44:00,
2013-01-26 14:49:00,33.3,8.5,29.59,South,170,3.0,3.0,35,0.00,CLR,,0.00,WeatherDisplay:10.37,2013-01-26 20:49:00,
2013-01-26 14:54:00,33.3,8.5,29.59,South,170,2.0,3.0,35,0.00,CLR,,0.00,WeatherDisplay:10.37,2013-01-26 20:54:00,
2013-01-26 14:59:00,33.4,8.7,29.59,SSE,157,2.0,3.0,35,0.00,CLR,,0.00,WeatherDisplay:10.37,2013-01-26 20:59:00,
2013-01-26 15:04:00,33.3,8.5,29.59,ESE,114,2.0,2.0,35,0.00,CLR,,0.00,WeatherDisplay:10.37,2013-01-26 21:04:00,
2013-01-26 15:09:00,33.3,8.5,29.59,ESE,105,2.0,2.0,35,0.00,CLR,,0.00,WeatherDisplay:10.37,2013-01-26 21:09:00,
2013-01-26 15:14:00,33.1,8.4,29.59,ESE,105,2.0,2.0,35,0.00,CLR,,0.00,WeatherDisplay:10.37,2013-01-26 21:14:00,
2013-01-26 15:19:00,33.1,8.4,29.59,ESE,105,2.0,2.0,35,0.00,CLR,,0.00,WeatherDisplay:10.37,2013-01-26 21:19:00,
2013-01-26 15:24:00,33.3,8.5,29.59,ENE,69,2.0,2.0,35,0.00,CLR,,0.00,WeatherDisplay:10.37,2013-01-26 21:24:00,
2013-01-26 15:29:00,33.3,8.5,29.59,North,350,2.0,2.0,35,0.00,CLR,,0.00,WeatherDisplay:10.37,2013-01-26 21:29:00,
2013-01-26 15:34:00,32.9,8.2,29.59,NNE,29,2.0,2.0,35,0.00,CLR,,0.00,WeatherDisplay:10.37,2013-01-26 21:34:00,
2013-01-26 15:39:00,32.7,8.0,29.59,NE,45,2.0,2.0,35,0.00,CLR,,0.00,WeatherDisplay:10.37,2013-01-26 21:39:00,
2013-01-26 15:44:00,32.7,8.0,29.59,NE,49,2.0,2.0,35,0.00,CLR,,0.00,WeatherDisplay:10.37,2013-01-26 21:44:00,
2013-01-26 15:49:00,32.5,7.9,29.59,ENE,65,1.0,2.0,35,0.00,CLR,,0.00,WeatherDisplay:10.37,2013-01-26 21:49:00,
2013-01-26 15:54:00,32.4,8.3,29.59,ENE,70,1.0,2.0,36,0.00,CLR,,0.00,WeatherDisplay:10.37,2013-01-26 21:54:00,
2013-01-26 15:59:00,32.4,8.3,29.59,ENE,70,1.0,1.0,36,0.00,CLR,,0.00,WeatherDisplay:10.37,2013-01-26 21:59:00,
2013-01-26 16:04:00,32.4,8.3,29.59,ENE,70,1.0,1.0,36,0.00,CLR,,0.00,WeatherDisplay:10.37,2013-01-26 22:04:00,
2013-01-26 16:09:00,32.2,8.2,29.59,ENE,68,1.0,1.0,36,0.00,CLR,,0.00,WeatherDisplay:10.37,2013-01-26 22:09:00,
2013-01-26 16:14:00,32.2,8.2,29.59,ENE,64,1.0,1.0,36,0.00,CLR,,0.00,WeatherDisplay:10.37,2013-01-26 22:14:00,
2013-01-26 16:19:00,31.8,8.5,29.59,ENE,65,1.0,1.0,37,0.00,CLR,,0.00,WeatherDisplay:10.37,2013-01-26 22:19:00,
2013-01-26 16:24:00,31.8,8.5,29.59,ENE,57,1.0,2.0,37,0.00,CLR,,0.00,WeatherDisplay:10.37,2013-01-26 22:24:00,
2013-01-26 16:29:00,31.1,9.0,29.59,NE,50,2.0,2.0,39,0.00,CLR,,0.00,WeatherDisplay:10.37,2013-01-26 22:29:00,
2013-01-26 16:34:00,30.9,9.4,29.59,NE,50,2.0,2.0,40,0.00,CLR,,0.00,WeatherDisplay:10.37,2013-01-26 22:34:00,
2013-01-26 16:39:00,30.9,9.9,29.59,ENE,60,2.0,3.0,41,0.00,CLR,,0.00,WeatherDisplay:10.37,2013-01-26 22:39:00,
2013-01-26 16:44:00,31.1,10.6,29.59,East,84,3.0,3.0,42,0.00,CLR,,0.00,WeatherDisplay:10.37,2013-01-26 22:44:00,
2013-01-26 16:49:00,30.9,11.0,29.59,East,94,3.0,3.0,43,0.00,CLR,,0.00,WeatherDisplay:10.37,2013-01-26 22:49:00,
2013-01-26 16:54:00,30.9,11.0,29.59,East,92,3.0,3.0,43,0.00,CLR,,0.00,WeatherDisplay:10.37,2013-01-26 22:54:00,
2013-01-26 16:59:00,30.7,11.4,29.59,East,88,3.0,4.0,44,0.00,CLR,,0.00,WeatherDisplay:10.37,2013-01-26 22:59:00,
2013-01-26 17:04:00,30.7,10.8,29.59,ENE,77,3.0,4.0,43,0.00,CLR,,0.00,WeatherDisplay:10.37,2013-01-26 23:04:00,
2013-01-26 17:09:00,30.2,10.9,29.59,ENE,71,3.0,4.0,44,0.00,CLR,,0.00,WeatherDisplay:10.37,2013-01-26 23:09:00,
2013-01-26 17:14:00,29.5,10.7,29.59,ENE,65,3.0,4.0,45,0.00,CLR,,0.00,WeatherDisplay:10.37,2013-01-26 23:14:00,
2013-01-26 17:19:00,28.8,9.6,29.59,ENE,65,3.0,4.0,44,0.00,CLR,,0.00,WeatherDisplay:10.37,2013-01-26 23:19:00,
2013-01-26 17:24:00,28.8,10.1,29.59,ENE,65,3.0,3.0,45,0.00,CLR,,0.00,WeatherDisplay:10.37,2013-01-26 23:24:00,
2013-01-26 17:29:00,28.0,10.4,29.59,ENE,72,3.0,3.0,47,0.00,CLR,,0.00,WeatherDisplay:10.37,2013-01-26 23:29:00,
2013-01-26 17:34:00,27.7,11.0,29.59,East,92,3.0,3.0,49,0.00,CLR,,0.00,WeatherDisplay:10.37,2013-01-26 23:34:00,
2013-01-26 17:39:00,27.5,10.4,29.59,East,101,3.0,3.0,48,0.00,CLR,,0.00,WeatherDisplay:10.37,2013-01-26 23:39:00,
2013-01-26 17:44:00,27.9,11.1,29.59,ESE,107,3.0,4.0,49,0.00,CLR,,0.00,WeatherDisplay:10.37,2013-01-26 23:44:00,
2013-01-26 17:49:00,27.7,11.4,29.59,ESE,108,5.0,5.0,50,0.00,CLR,,0.00,WeatherDisplay:10.37,2013-01-26 23:49:00,
2013-01-26 17:54:00,27.5,10.8,29.59,ESE,105,5.0,5.0,49,0.00,CLR,,0.00,WeatherDisplay:10.37,2013-01-26 23:54:00,
2013-01-26 17:59:00,27.3,11.1,29.59,ESE,104,5.0,5.0,50,0.00,CLR,,0.00,WeatherDisplay:10.37,2013-01-26 23:59:00,
2013-01-26 18:04:00,27.0,11.2,29.59,East,98,5.0,5.0,51,0.00,CLR,,0.00,WeatherDisplay:10.37,2013-01-27 00:04:00,
2013-01-26 18:09:00,26.6,10.9,29.59,East,95,5.0,5.0,51,0.00,CLR,,0.00,WeatherDisplay:10.37,2013-01-27 00:09:00,
2013-01-26 18:14:00,26.6,10.9,29.62,East,95,5.0,5.0,51,0.00,CLR,,0.00,WeatherDisplay:10.37,2013-01-27 00:14:00,
2013-01-26 18:19:00,26.8,11.0,29.59,East,95,3.0,5.0,51,0.00,CLR,,0.00,WeatherDisplay:10.37,2013-01-27 00:19:00,
2013-01-26 18:24:00,26.8,11.0,29.59,East,95,3.0,4.0,51,0.00,CLR,,0.00,WeatherDisplay:10.37,2013-01-27 00:24:00,
2013-01-26 18:34:00,27.1,11.4,29.59,ESE,102,3.0,4.0,51,0.00,CLR,,0.00,WeatherDisplay:10.37,2013-01-27 00:34:00,
2013-01-26 18:39:00,27.1,11.8,29.59,ESE,102,3.0,4.0,52,0.00,CLR,,0.00,WeatherDisplay:10.37,2013-01-27 00:39:00,
2013-01-26 18:44:00,27.1,12.3,29.59,East,100,3.0,4.0,53,0.00,CLR,,0.00,WeatherDisplay:10.37,2013-01-27 00:44:00,
2013-01-26 18:49:00,27.3,12.0,29.62,East,100,3.0,3.0,52,0.00,CLR,,0.00,WeatherDisplay:10.37,2013-01-27 00:49:00,
2013-01-26 18:54:00,27.3,12.0,29.62,East,100,2.0,3.0,52,0.00,CLR,,0.00,WeatherDisplay:10.37,2013-01-27 00:54:00,
2013-01-26 18:59:00,27.5,11.7,29.62,East,100,2.0,3.0,51,0.00,CLR,,0.00,WeatherDisplay:10.37,2013-01-27 00:59:00,
2013-01-26 19:04:00,27.7,12.8,29.59,East,100,2.0,2.0,53,0.00,CLR,,0.00,WeatherDisplay:10.37,2013-01-27 01:04:00,
2013-01-26 19:09:00,27.9,12.9,29.59,East,101,1.0,2.0,53,0.00,CLR,,0.00,WeatherDisplay:10.37,2013-01-27 01:09:00,
2013-01-26 19:14:00,27.9,13.8,29.59,East,99,2.0,2.0,55,0.00,CLR,,0.00,WeatherDisplay:10.37,2013-01-27 01:14:00,
2013-01-26 19:19:00,27.9,12.9,29.59,East,90,2.0,2.0,53,0.00,CLR,,0.00,WeatherDisplay:10.37,2013-01-27 01:19:00,
2013-01-26 19:24:00,28.0,13.1,29.62,East,90,1.0,2.0,53,0.00,CLR,,0.00,WeatherDisplay:10.37,2013-01-27 01:24:00,
2013-01-26 19:29:00,28.2,12.8,29.62,East,94,2.0,2.0,52,0.00,CLR,,0.00,WeatherDisplay:10.37,2013-01-27 01:29:00,
2013-01-26 19:34:00,28.0,12.7,29.62,East,94,1.0,2.0,52,0.00,CLR,,0.00,WeatherDisplay:10.37,2013-01-27 01:34:00,
2013-01-26 19:39:00,27.9,12.5,29.59,East,94,2.0,2.0,52,0.00,CLR,,0.00,WeatherDisplay:10.37,2013-01-27 01:39:00,
2013-01-26 19:44:00,27.5,12.6,29.59,ESE,105,2.0,2.0,53,0.00,CLR,,0.00,WeatherDisplay:10.37,2013-01-27 01:44:00,
2013-01-26 19:54:00,27.3,12.4,29.59,ESE,115,3.0,3.0,53,0.00,SCT,,0.00,WeatherDisplay:10.37,2013-01-27 01:54:00,
2013-01-26 19:59:00,27.5,12.6,29.59,ESE,119,3.0,4.0,53,0.00,SCT,,0.00,WeatherDisplay:10.37,2013-01-27 01:59:00,
2013-01-26 20:04:00,27.7,12.8,29.59,ESE,123,5.0,5.0,53,0.00,BKN,,0.00,WeatherDisplay:10.37,2013-01-27 02:04:00,
2013-01-26 20:09:00,27.9,13.3,29.59,SE,124,5.0,5.0,54,0.00,BKN,,0.00,WeatherDisplay:10.37,2013-01-27 02:09:00,
2013-01-26 20:14:00,28.2,13.7,29.59,SE,129,5.0,5.0,54,0.00,BKN,,0.00,WeatherDisplay:10.37,2013-01-27 02:14:00,
2013-01-26 20:19:00,28.6,14.0,29.59,SE,136,6.0,6.0,54,0.00,BKN,,0.00,WeatherDisplay:10.37,2013-01-27 02:19:00,
2013-01-26 20:24:00,28.6,14.0,29.59,SE,136,6.0,6.0,54,0.00,BKN,,0.00,WeatherDisplay:10.37,2013-01-27 02:24:00,
2013-01-26 20:29:00,28.6,13.6,29.59,SE,139,6.0,6.0,53,0.00,BKN,,0.00,WeatherDisplay:10.37,2013-01-27 02:29:00,
2013-01-26 20:34:00,28.8,13.8,29.59,SE,138,7.0,7.0,53,0.00,SCT,,0.00,WeatherDisplay:10.37,2013-01-27 02:34:00,
2013-01-26 20:39:00,28.9,13.5,29.59,SE,138,7.0,7.0,52,0.00,SCT,,0.00,WeatherDisplay:10.37,2013-01-27 02:39:00,
2013-01-26 20:44:00,28.8,13.3,29.59,SE,136,7.0,7.0,52,0.00,SCT,,0.00,WeatherDisplay:10.37,2013-01-27 02:44:00,
2013-01-26 20:54:00,28.6,13.6,29.59,SE,143,7.0,7.0,53,0.00,CLR,,0.00,WeatherDisplay:10.37,2013-01-27 02:54:00,
2013-01-26 20:59:00,28.6,13.6,29.59,SSE,150,8.0,8.0,53,0.00,CLR,,0.00,WeatherDisplay:10.37,2013-01-27 02:59:00,
2013-01-26 21:04:00,28.0,13.1,29.59,SE,146,8.0,8.0,53,0.00,CLR,,0.00,WeatherDisplay:10.37,2013-01-27 03:04:00,
2013-01-26 21:09:00,27.7,12.8,29.59,SE,144,8.0,8.0,53,0.00,CLR,,0.00,WeatherDisplay:10.37,2013-01-27 03:09:00,
2013-01-26 21:19:00,27.0,12.9,29.59,SE,138,7.0,8.0,55,0.00,CLR,,0.00,WeatherDisplay:10.37,2013-01-27 03:19:00,
2013-01-26 21:24:00,26.8,12.8,29.59,SE,138,7.0,7.0,55,0.00,CLR,,0.00,WeatherDisplay:10.37,2013-01-27 03:24:00,
2013-01-26 21:29:00,26.4,12.8,29.59,SE,141,7.0,7.0,56,0.00,CLR,,0.00,WeatherDisplay:10.37,2013-01-27 03:29:00,
2013-01-26 21:34:00,26.4,12.8,29.59,SE,140,7.0,7.0,56,0.00,CLR,,0.00,WeatherDisplay:10.37,2013-01-27 03:34:00,
2013-01-26 21:39:00,26.4,12.8,29.59,SE,138,7.0,7.0,56,0.00,CLR,,0.00,WeatherDisplay:10.37,2013-01-27 03:39:00,
2013-01-26 21:44:00,26.2,12.7,29.59,SE,135,8.0,8.0,56,0.00,CLR,,0.00,WeatherDisplay:10.37,2013-01-27 03:44:00,
2013-01-26 21:49:00,26.1,12.9,29.59,SE,139,8.0,8.0,57,0.00,CLR,,0.00,WeatherDisplay:10.37,2013-01-27 03:49:00,
2013-01-26 21:54:00,26.1,12.9,29.59,SE,139,8.0,8.0,57,0.00,CLR,,0.00,WeatherDisplay:10.37,2013-01-27 03:54:00,
2013-01-26 21:59:00,26.1,12.9,29.59,SE,137,8.0,8.0,57,0.00,CLR,,0.00,WeatherDisplay:10.37,2013-01-27 03:59:00,
2013-01-26 22:04:00,26.1,12.9,29.59,SE,131,8.0,8.0,57,0.00,CLR,,0.00,WeatherDisplay:10.37,2013-01-27 04:04:00,
2013-01-26 22:09:00,26.1,12.9,29.59,SE,130,8.0,8.0,57,0.00,CLR,,0.00,WeatherDisplay:10.37,2013-01-27 04:09:00,
2013-01-26 22:14:00,26.1,12.9,29.59,SE,127,8.0,8.0,57,0.00,CLR,,0.00,WeatherDisplay:10.37,2013-01-27 04:14:00,
2013-01-26 22:19:00,25.9,12.7,29.59,SE,125,8.0,8.0,57,0.00,CLR,,0.00,WeatherDisplay:10.37,2013-01-27 04:19:00,
2013-01-26 22:24:00,25.7,12.9,29.59,ESE,123,8.0,8.0,58,0.00,CLR,,0.00,WeatherDisplay:10.37,2013-01-27 04:24:00,
2013-01-26 22:29:00,25.5,12.8,29.59,ESE,123,7.0,8.0,58,0.00,CLR,,0.00,WeatherDisplay:10.37,2013-01-27 04:29:00,
2013-01-26 22:34:00,25.5,13.2,29.59,SE,125,7.0,7.0,59,0.00,CLR,,0.00,WeatherDisplay:10.37,2013-01-27 04:34:00,
2013-01-26 22:39:00,25.5,13.2,29.59,ESE,123,7.0,7.0,59,0.00,CLR,,0.00,WeatherDisplay:10.37,2013-01-27 04:39:00,
2013-01-26 22:44:00,25.2,12.8,29.59,ESE,120,7.0,7.0,59,0.00,CLR,,0.00,WeatherDisplay:10.37,2013-01-27 04:44:00,
2013-01-26 22:49:00,25.2,12.8,29.59,ESE,123,7.0,7.0,59,0.00,CLR,,0.00,WeatherDisplay:10.37,2013-01-27 04:49:00,
2013-01-26 22:54:00,25.0,12.7,29.59,SE,125,7.0,7.0,59,0.00,CLR,,0.00,WeatherDisplay:10.37,2013-01-27 04:54:00,
2013-01-26 22:59:00,24.6,12.7,29.59,SE,125,7.0,7.0,60,0.00,CLR,,0.00,WeatherDisplay:10.37,2013-01-27 04:59:00,
2013-01-26 23:04:00,24.4,12.5,29.59,SE,125,6.0,7.0,60,0.00,CLR,,0.00,WeatherDisplay:10.37,2013-01-27 05:04:00,
2013-01-26 23:09:00,24.4,12.5,29.59,SE,127,6.0,6.0,60,0.00,CLR,,0.00,WeatherDisplay:10.37,2013-01-27 05:09:00,
2013-01-26 23:19:00,24.4,12.9,29.59,SE,128,6.0,6.0,61,0.00,CLR,,0.00,WeatherDisplay:10.37,2013-01-27 05:19:00,
2013-01-26 23:24:00,24.3,13.1,29.59,SE,127,6.0,6.0,62,0.00,CLR,,0.00,WeatherDisplay:10.37,2013-01-27 05:24:00,
2013-01-26 23:29:00,24.3,13.1,29.59,SE,128,6.0,6.0,62,0.00,CLR,,0.00,WeatherDisplay:10.37,2013-01-27 05:29:00,
2013-01-26 23:34:00,24.1,12.9,29.59,SE,127,6.0,6.0,62,0.00,CLR,,0.00,WeatherDisplay:10.37,2013-01-27 05:34:00,
2013-01-26 23:39:00,23.9,12.8,29.59,SE,125,6.0,6.0,62,0.00,CLR,,0.00,WeatherDisplay:10.37,2013-01-27 05:39:00,
2013-01-26 23:44:00,23.7,13.0,29.59,SE,125,6.0,6.0,63,0.00,CLR,,0.00,WeatherDisplay:10.37,2013-01-27 05:44:00,
2013-01-26 23:49:00,23.7,13.3,29.59,SE,129,6.0,6.0,64,0.00,CLR,,0.00,WeatherDisplay:10.37,2013-01-27 05:49:00,
2013-01-26 23:54:00,23.9,13.5,29.59,SE,130,6.0,6.0,64,0.00,CLR,,0.00,WeatherDisplay:10.37,2013-01-27 05:54:00,
2013-01-26 23:59:00,23.7,13.3,29.59,SE,128,6.0,6.0,64,0.00,CLR,,0.00,WeatherDisplay:10.37,2013-01-27 05:59:00,